TimeGMT,TemperatureF,Dew PointF,Humidity,Sea Level PressureIn,VisibilityMPH,Wind Direction,Wind SpeedMPH,Gust SpeedMPH,PrecipitationIn,Events,Conditions,WindDirDegrees,DateUTC
12:50 AM,41.0,35.6,81,29.56,6.2,North,8.1,-,N/A,,Partly Cloudy,360,2012-11-05 00:50:00
2:50 AM,40,35,78,29.64,19,NNE,10.4,,,,Scattered Clouds,30,2012-11-05 02:50:00
2:50 AM,41.0,35.6,81,29.62,6.2,NNE,10.4,-,N/A,,Partly Cloudy,30,2012-11-05 02:50:00
3:50 AM,41.0,35.6,81,29.65,6.2,NNE,10.4,-,N/A,,Partly Cloudy,30,2012-11-05 03:50:00
4:50 AM,39.2,35.6,87,29.68,6.2,North,6.9,-,N/A,,Partly Cloudy,10,2012-11-05 04:50:00
5:20 AM,39.2,35.6,87,29.68,6.2,North,8.1,-,N/A,,Partly Cloudy,10,2012-11-05 05:20:00
5:50 AM,38,35,84,29.71,19,North,5.8,,,,Scattered Clouds,0,2012-11-05 05:50:00
5:50 AM,37.4,35.6,93,29.71,6.2,North,6.9,-,N/A,,Partly Cloudy,360,2012-11-05 05:50:00
6:20 AM,39.2,35.6,87,29.71,6.2,North,6.9,-,N/A,,Partly Cloudy,360,2012-11-05 06:20:00
6:50 AM,39.2,35.6,87,29.71,6.2,Variable,2.3,-,N/A,,Partly Cloudy,0,2012-11-05 06:50:00
7:50 AM,37.4,35.6,93,29.74,6.2,Variable,2.3,-,N/A,,Partly Cloudy,0,2012-11-05 07:50:00
8:20 AM,41.0,37.4,87,29.77,6.2,NNW,6.9,-,N/A,,Partly Cloudy,340,2012-11-05 08:20:00
8:50 AM,44,39,75,29.78,25,North,5.8,,,,Scattered Clouds,350,2012-11-05 08:50:00
8:50 AM,44.6,39.2,81,29.77,6.2,North,5.8,-,N/A,,Partly Cloudy,350,2012-11-05 08:50:00
9:20 AM,46.4,37.4,71,29.77,6.2,NNW,5.8,-,N/A,,Partly Cloudy,330,2012-11-05 09:20:00
9:50 AM,48.2,39.2,71,29.77,6.2,NNW,4.6,-,N/A,,Partly Cloudy,330,2012-11-05 09:50:00
10:20 AM,44.6,39.2,81,29.80,6.2,NW,15.0,-,N/A,Rain,Light Rain Showers,320,2012-11-05 10:20:00
10:50 AM,44.6,37.4,76,29.80,6.2,Variable,2.3,-,N/A,,Mostly Cloudy,0,2012-11-05 10:50:00
11:20 AM,46.4,41.0,81,29.80,6.2,NW,4.6,-,N/A,,Partly Cloudy,310,2012-11-05 11:20:00
11:50 AM,46,39,68,29.82,25,WNW,5.8,,,Rain,Light Rain Showers,300,2012-11-05 11:50:00
11:50 AM,46.4,39.2,76,29.80,6.2,WNW,5.8,-,N/A,,Partly Cloudy,300,2012-11-05 11:50:00
12:20 PM,48.2,41.0,76,29.80,6.2,NW,6.9,-,N/A,,Partly Cloudy,310,2012-11-05 12:20:00
12:50 PM,50.0,39.2,66,29.83,6.2,NW,9.2,-,N/A,,Partly Cloudy,310,2012-11-05 12:50:00
1:20 PM,50.0,39.2,66,29.83,6.2,NW,10.4,-,N/A,,Partly Cloudy,320,2012-11-05 13:20:00
1:50 PM,50.0,41.0,71,29.83,6.2,NW,11.5,-,N/A,,Partly Cloudy,320,2012-11-05 13:50:00
2:50 PM,48,41,68,29.86,31,NW,5.8,,,,Scattered Clouds,320,2012-11-05 14:50:00
2:50 PM,48.2,41.0,76,29.86,6.2,NW,5.8,-,N/A,,Partly Cloudy,320,2012-11-05 14:50:00
3:20 PM,48.2,39.2,71,29.86,6.2,WNW,4.6,-,N/A,,Partly Cloudy,300,2012-11-05 15:20:00
3:50 PM,48.2,39.2,71,29.86,6.2,NNW,5.8,-,N/A,,Partly Cloudy,330,2012-11-05 15:50:00
4:20 PM,46.4,39.2,76,29.89,6.2,Variable,3.5,-,N/A,,Partly Cloudy,0,2012-11-05 16:20:00
4:50 PM,46.4,37.4,71,29.89,6.2,Variable,2.3,-,N/A,,Partly Cloudy,0,2012-11-05 16:50:00
5:20 PM,46.4,39.2,76,29.89,6.2,Variable,1.2,-,N/A,,Partly Cloudy,0,2012-11-05 17:20:00
5:50 PM,45,38,68,29.93,25,West,3.5,,,,Scattered Clouds,270,2012-11-05 17:50:00
5:50 PM,44.6,37.4,76,29.92,6.2,Variable,3.5,-,N/A,,Partly Cloudy,0,2012-11-05 17:50:00
6:20 PM,44.6,39.2,81,29.92,6.2,Variable,2.3,-,N/A,Rain,Light Rain Showers,0,2012-11-05 18:20:00
6:50 PM,46.4,41.0,81,29.95,6.2,NNW,5.8,-,N/A,,Mostly Cloudy,330,2012-11-05 18:50:00
7:20 PM,46.4,41.0,81,29.95,6.2,NW,10.4,-,N/A,Rain,Light Rain Showers,310,2012-11-05 19:20:00
7:50 PM,46.4,41.0,81,29.98,6.2,North,5.8,-,N/A,,Mostly Cloudy,350,2012-11-05 19:50:00
8:20 PM,44.6,39.2,81,29.98,6.2,North,6.9,-,N/A,,Partly Cloudy,350,2012-11-05 20:20:00
8:50 PM,45,40,75,30.00,25,NNW,5.8,,,,Partly Cloudy,330,2012-11-05 20:50:00
8:50 PM,44.6,39.2,81,29.98,6.2,NNW,5.8,-,N/A,,Partly Cloudy,340,2012-11-05 20:50:00
9:50 PM,42.8,37.4,81,30.01,6.2,East,3.5,-,N/A,,Partly Cloudy,80,2012-11-05 21:50:00
10:50 PM,46.4,37.4,71,30.01,6.2,NNW,11.5,-,N/A,,Partly Cloudy,340,2012-11-05 22:50:00
11:50 PM,46,40,74,30.05,19,NW,11.5,,,,Partly Cloudy,310,2012-11-05 23:50:00
11:50 PM,46.4,41.0,81,30.04,6.2,NW,11.5,-,N/A,,Scattered Clouds,310,2012-11-05 23:50:00